Columbia, CA

8:42 AM PST on February 10, 2016 (GMT -0800)
Columbia Airport

Weather History for KO22 - August, 2013

Change the Weather History Date:

Tuesday, August 20, 2013

  Actual Average (KMOD) Record (KMOD)
Temperature  
Mean Temperature 82 °F -  
Max Temperature 98 °F 93 °F 104 °F (1950)
Min Temperature 66 °F 62 °F 50 °F (1943)
Degree Days  
Heating Degree Days 0 0  
Month to date heating degree days 0  
Since 1 June heating degree days 3  
Since 1 July heating degree days 0  
Cooling Degree Days 17 13  
Month to date cooling degree days 269  
Year to date cooling degree days 1204  
Since 1 June cooling degree days 1005  
Growing Degree Days 32 (Base 50)    
Moisture  
Dew Point 52 °F    
Average Humidity 38    
Maximum Humidity 64    
Minimum Humidity 18    
Precipitation  
Precipitation 0.00 in 0.00 in 0.00 in (2016)
Month to date precipitation 0.01  
Year to date precipitation 8.76  
Snow  
Snow 0.00 in - - ()
Month to date snowfall  
Since 1 June snowfall  
Since 1 July snowfall  
Snow Depth -    
Sea Level Pressure  
Sea Level Pressure 29.90 in    
Wind  
Wind Speed 2 mph (WSW)    
Max Wind Speed 10 mph    
Max Gust Speed -    
Visibility 10 miles    
Events      
T = Trace of Precipitation, MM = Missing Value Source: NWS Daily Summary

Daily Weather History Graph

Daily Weather History Graph

Search for Another Location

Airport or City:

Trip Planner

Search our weather history database for the weather conditions in past years. The results will help you decide how hot, cold, wet, or windy it might be!

Date:

Astronomy

Aug. 20, 2013 Rise Set
Actual Time 6:21 AM PDT 7:47 PM PDT
Civil Twilight 5:53 AM PDT 8:15 PM PDT
Nautical Twilight 5:20 AM PDT 8:48 PM PDT
Astronomical Twilight 4:45 AM PDT 9:23 PM PDT
Moon 7:23 PM PDT (8/20) 5:56 AM PDT (8/20)
Length of Visible Light 14h 21m
Length of Day
13h 26m
Full, 100% of the Moon is Illuminated
Aug 20
Full
Aug 20
Full
Aug 28
Last Quarter
Sep 5
New
Sep 12
First Quarter

Hourly Weather History & Observations

Time (PDT) Temp. Heat Index Dew Point Humidity Pressure Visibility Wind Dir Wind Speed Gust Speed Precip Events Conditions
12:15 AM 78.8 °F - 55.4 °F 44% 29.91 in 10.0 mi Calm Calm - N/A   Overcast
12:35 AM 77.0 °F - 55.4 °F 47% 29.90 in 10.0 mi Calm Calm - N/A   Overcast
12:55 AM 77.0 °F - 55.4 °F 47% 29.90 in 10.0 mi Calm Calm - N/A   Mostly Cloudy
1:15 AM 77.0 °F - 55.4 °F 47% 29.89 in 10.0 mi Calm Calm - N/A   Overcast
1:35 AM 77.0 °F - 55.4 °F 47% 29.89 in 10.0 mi Calm Calm - N/A   Overcast
1:55 AM 77.0 °F - 55.4 °F 47% 29.88 in 10.0 mi Calm Calm - N/A   Overcast
2:15 AM 75.2 °F - 55.4 °F 50% 29.89 in 10.0 mi Calm Calm - N/A   Overcast
2:35 AM 75.2 °F - 55.4 °F 50% 29.88 in 10.0 mi NE 4.6 mph - N/A   Overcast
2:55 AM 75.2 °F - 53.6 °F 47% 29.89 in 10.0 mi Calm Calm - N/A   Overcast
3:15 AM 73.4 °F - 53.6 °F 50% 29.89 in 10.0 mi NE 3.5 mph - N/A   Overcast
3:35 AM 73.4 °F - 53.6 °F 50% 29.89 in 10.0 mi NE 3.5 mph - N/A   Overcast
3:55 AM 71.6 °F - 53.6 °F 53% 29.88 in 10.0 mi Calm Calm - N/A   Overcast
4:15 AM 69.8 °F - 53.6 °F 56% 29.89 in 10.0 mi Calm Calm - N/A   Overcast
4:35 AM 69.8 °F - 53.6 °F 56% 29.89 in 10.0 mi Calm Calm - N/A   Overcast
4:55 AM 68.0 °F - 53.6 °F 60% 29.89 in 10.0 mi Calm Calm - N/A   Overcast
5:15 AM 68.0 °F - 53.6 °F 60% 29.89 in 10.0 mi Calm Calm - N/A   Overcast
5:35 AM 66.2 °F - 53.6 °F 64% 29.90 in 10.0 mi Calm Calm - N/A   Overcast
5:55 AM 66.2 °F - 53.6 °F 64% 29.90 in 10.0 mi Calm Calm - N/A   Mostly Cloudy
6:15 AM 66.2 °F - 51.8 °F 60% 29.91 in 10.0 mi Calm Calm - N/A   Partly Cloudy
6:35 AM 66.2 °F - 51.8 °F 60% 29.91 in 10.0 mi Calm Calm - N/A   Clear
6:55 AM 66.2 °F - 51.8 °F 60% 29.91 in 10.0 mi Calm Calm - N/A   Clear
7:15 AM 68.0 °F - 53.6 °F 60% 29.91 in 10.0 mi Calm Calm - N/A   Clear
7:35 AM 73.4 °F - 53.6 °F 50% 29.92 in 10.0 mi Calm Calm - N/A   Clear
7:55 AM 75.2 °F - 55.4 °F 50% 29.92 in 10.0 mi Calm Calm - N/A   Clear
8:15 AM 80.6 °F 80.3 °F 53.6 °F 39% 29.92 in 10.0 mi Calm Calm - N/A   Clear
8:35 AM 82.4 °F - 50.0 °F 32% 29.92 in 8.0 mi South 3.5 mph - N/A   Clear
8:55 AM 82.4 °F - 50.0 °F 32% 29.93 in 5.0 mi South 3.5 mph - N/A   Clear
9:15 AM 86.0 °F - 48.2 °F 27% 29.93 in 4.0 mi SSE 4.6 mph - N/A   Clear
9:35 AM 86.0 °F - 48.2 °F 27% 29.93 in 5.0 mi South 4.6 mph - N/A   Clear
9:55 AM 87.8 °F - 48.2 °F 25% 29.93 in 5.0 mi SSW 3.5 mph - N/A   Clear
10:15 AM 87.8 °F - 48.2 °F 25% 29.93 in 9.0 mi South 4.6 mph - N/A   Clear
10:35 AM 89.6 °F - 50.0 °F 26% 29.93 in 10.0 mi South 5.8 mph - N/A   Clear
10:55 AM 89.6 °F - 51.8 °F 27% 29.93 in 10.0 mi WSW 9.2 mph - N/A   Clear
11:15 AM 91.4 °F - 50.0 °F 24% 29.93 in 10.0 mi SSW 4.6 mph - N/A   Clear
11:35 AM 91.4 °F - 50.0 °F 24% 29.93 in 10.0 mi WSW 8.1 mph - N/A   Clear
11:55 AM 93.2 °F - 50.0 °F 23% 29.92 in 10.0 mi WSW 5.8 mph - N/A   Clear
12:15 PM 93.2 °F - 50.0 °F 23% 29.92 in 10.0 mi WSW 8.1 mph - N/A   Clear
12:35 PM 95.0 °F - 50.0 °F 22% 29.92 in 10.0 mi WSW 9.2 mph - N/A   Clear
12:55 PM 95.0 °F - 50.0 °F 22% 29.91 in 10.0 mi WSW 6.9 mph - N/A   Clear
1:15 PM 95.0 °F - 48.2 °F 20% 29.91 in 10.0 mi WSW 6.9 mph - N/A   Clear
1:35 PM 95.0 °F - 48.2 °F 20% 29.90 in 10.0 mi WSW 8.1 mph - N/A   Clear
1:55 PM 96.8 °F - 48.2 °F 19% 29.90 in 10.0 mi SW 6.9 mph - N/A   Clear
2:15 PM 98.6 °F - 48.2 °F 18% 29.89 in 10.0 mi SSW 3.5 mph - N/A   Clear
2:35 PM 98.6 °F - 48.2 °F 18% 29.88 in 10.0 mi South 6.9 mph - N/A   Clear
2:55 PM 98.6 °F - 48.2 °F 18% 29.88 in 10.0 mi West 10.4 mph - N/A   Clear
3:15 PM 96.8 °F - 48.2 °F 19% 29.88 in 10.0 mi West 9.2 mph - N/A   Clear
3:35 PM 95.0 °F - 48.2 °F 20% 29.87 in 10.0 mi SSW 5.8 mph - N/A   Clear
3:55 PM 96.8 °F - 48.2 °F 19% 29.87 in 10.0 mi West 6.9 mph - N/A   Clear
4:15 PM 95.0 °F - 48.2 °F 20% 29.87 in 10.0 mi West 6.9 mph - N/A   Clear
4:35 PM 95.0 °F - 50.0 °F 22% 29.86 in 10.0 mi West 8.1 mph - N/A   Clear
4:55 PM 95.0 °F - 50.0 °F 22% 29.86 in 10.0 mi West 6.9 mph - N/A   Clear
5:15 PM 93.2 °F - 50.0 °F 23% 29.86 in 10.0 mi WSW 6.9 mph - N/A   Clear
5:35 PM 91.4 °F - 50.0 °F 24% 29.86 in 10.0 mi WSW 6.9 mph - N/A   Clear
5:55 PM 91.4 °F - 50.0 °F 24% 29.87 in 10.0 mi WSW 3.5 mph - N/A   Clear
6:15 PM 91.4 °F - 50.0 °F 24% 29.86 in 10.0 mi West 4.6 mph - N/A   Clear
6:35 PM 91.4 °F - 50.0 °F 24% 29.86 in 10.0 mi West 4.6 mph - N/A   Clear
6:55 PM 89.6 °F - 51.8 °F 27% 29.87 in 10.0 mi West 3.5 mph - N/A   Clear
7:15 PM 86.0 °F - 51.8 °F 31% 29.86 in 10.0 mi WNW 3.5 mph - N/A   Clear
7:35 PM 84.2 °F - 51.8 °F 33% 29.87 in 10.0 mi Calm Calm - N/A   Clear
7:55 PM 82.4 °F - 51.8 °F 35% 29.87 in 10.0 mi Calm Calm - N/A   Clear
8:15 PM 80.6 °F 80.3 °F 53.6 °F 39% 29.87 in 10.0 mi Calm Calm - N/A   Mostly Cloudy
8:35 PM 78.8 °F - 53.6 °F 42% 29.88 in 10.0 mi Calm Calm - N/A   Overcast
8:55 PM 77.0 °F - 53.6 °F 44% 29.89 in 10.0 mi Calm Calm - N/A   Overcast
9:15 PM 77.0 °F - 53.6 °F 44% 29.89 in 10.0 mi Calm Calm - N/A   Overcast
9:35 PM 77.0 °F - 53.6 °F 44% 29.89 in 10.0 mi Calm Calm - N/A   Overcast
9:55 PM 75.2 °F - 53.6 °F 47% 29.89 in 10.0 mi Calm Calm - N/A   Overcast
10:15 PM 75.2 °F - 53.6 °F 47% 29.89 in 10.0 mi Calm Calm - N/A   Overcast
10:35 PM 73.4 °F - 53.6 °F 50% 29.89 in 10.0 mi West 4.6 mph - N/A   Overcast
10:55 PM 73.4 °F - 53.6 °F 50% 29.89 in 10.0 mi Calm Calm - N/A   Overcast
11:15 PM 73.4 °F - 53.6 °F 50% 29.90 in 10.0 mi Calm Calm - N/A   Overcast
11:35 PM 71.6 °F - 53.6 °F 53% 29.90 in 10.0 mi WNW 3.5 mph - N/A   Overcast
11:55 PM 71.6 °F - 51.8 °F 50% 29.90 in 10.0 mi Calm Calm - N/A   Overcast